[[{"header":{"parameterUnit":"m.s-1","parameterCategory":1,"la1":30.2991,"la2":30.254,"lo1":-89.0895,"lo2":-89.0444,"dy":0.0017,"dx":0.0017,"nx":28,"ny":28,"refTime":"2023-10-01T03:00:00:Z","depth":0,"parameterNumber":2,"parameterNumberName":"U-component_of_WINDS"},"data":[0,0,0,0,0,0,0,0,0,0,0,0,0,0,0,0,0,0,0,0,0,0,0,0,0,0,0,0,0,0,0,0,0,0,0,0,0,0,0,0,0,0,0,0,0,0,0,0,0,0,0,0,0,0,0,0,0,0,-4.4752,-4.4753,0,-4.479,-4.479,-4.479,-4.4635,-4.463,-4.4626,-4.4622,-4.4661,-4.4667,-4.4672,0,0,0,0,0,0,0,0,0,0,0,0,0,-4.4548,-4.4553,-4.4752,-4.4753,-4.4753,-4.479,-4.479,-4.4791,-4.4636,-4.463,-4.4625,-4.4619,-4.466,-4.4666,-4.4672,0,0,0,0,0,0,0,0,0,0,0,0,0,-4.4617,-4.4554,-4.4752,-4.468,-4.4674,-4.4789,-4.479,-4.4791,-4.4637,-4.463,-4.4623,-4.4617,-4.4658,-4.4665,-4.4673,-4.486,0,0,-4.4698,-4.4701,0,0,0,0,0,0,0,0,-4.4613,-4.4624,-4.469,-4.4686,-4.4679,-4.4701,-4.4732,-4.4814,-4.4639,-4.4651,-4.4621,-4.4613,-4.468,-4.4686,-4.4708,-4.4862,-4.4863,-4.4698,-4.4703,-4.4707,-4.4709,0,0,0,0,0,0,0,-4.4608,-4.4622,-4.4767,-4.4692,-4.4685,-4.4647,-4.4649,-4.4747,-4.4704,-4.465,-4.4638,-4.4645,-4.4676,-4.4701,-4.4708,-4.4864,-4.4698,-4.4705,-4.471,-4.4713,-4.5173,-4.518,0,0,0,0,0,0,-4.4613,-4.4619,-4.4766,-4.4768,-4.4628,-4.4656,-4.4658,-4.4701,-4.4702,-4.4696,-4.4651,-4.4637,-4.469,-4.4699,-4.4709,-4.4927,-4.4707,-4.4714,-4.4719,-4.5166,-4.5175,-4.5183,0,0,0,0,0,0,-4.4609,-4.4628,-4.4764,-4.4691,-4.4705,-4.4667,-4.4716,-4.4705,-4.473,-4.4703,-4.4695,-4.4684,-4.4685,-4.4697,-4.4823,-4.4926,-4.4718,-4.4725,-4.5157,-4.5168,-4.5179,-4.5367,0,0,0,0,0,0,-4.4604,-4.4627,-4.4697,-4.4693,-4.471,-4.4879,-4.4722,-4.4711,-4.4744,-4.4727,-4.4732,-4.4726,-4.4681,-4.4812,-4.4831,-4.4934,-4.4731,-4.5147,-4.5162,-4.5175,-4.5351,-4.5383,-4.541,0,0,0,0,0,-4.4597,-4.4749,-4.4702,-4.472,-4.4796,-4.4885,-4.4894,-4.4838,-4.4753,-4.4823,-4.4806,-4.4726,-4.4912,-4.4826,-4.4847,-4.4953,-4.5141,-4.5158,-4.5174,-4.5338,-4.5376,-4.5409,0,0,0,0,0,0,-4.4767,-4.4747,-4.4694,-4.4849,-4.487,-4.4858,-4.4945,-4.4881,-4.4926,-4.4909,-4.4838,-4.484,-4.4979,-4.4978,-4.4883,-4.5134,-4.5012,-4.5033,-4.5129,-4.5166,-4.5195,-4.5192,-4.4738,0,0,0,0,0,-4.4822,-4.4895,-4.4874,-4.5013,-4.5026,-4.4985,-4.5021,-4.4976,-4.4994,-4.5003,-4.4994,-4.5016,-4.5079,-4.5122,-4.5179,-4.535,-4.5349,-4.5433,-4.5463,-4.5487,-4.5507,-4.5597,-4.5635,-4.5237,-4.5237,-4.5237,0,0,-4.4937,-4.4936,-4.4986,-4.5047,-4.5057,-4.5135,-4.4993,-4.5081,-4.5138,-4.5016,-4.5134,-4.513,-4.5149,-4.5299,-4.5364,-4.5302,-4.5616,-4.5508,-4.5528,-4.5534,-4.5618,-4.5656,-4.569,-4.5249,-4.5247,-4.5245,0,0,-4.5187,-4.5193,-4.5309,-4.5323,-4.534,-4.5312,-4.534,-4.5339,-4.5331,-4.5448,-4.5359,-4.5426,-4.5536,-4.5553,-4.5577,-4.5834,-4.5763,-4.5854,-4.6008,-4.6098,-4.6129,-4.6157,-4.6249,-4.6283,-4.5874,-4.5874,-4.5875,0,-4.5328,-4.5441,-4.5377,-4.5472,-4.5501,-4.5394,-4.5511,-4.5528,-4.5564,-4.5587,-4.5517,-4.5653,-4.5659,-4.5811,-4.5874,-4.5896,-4.5927,-4.5853,-4.613,-4.6157,-4.6181,-4.6268,-4.6303,-4.5885,-4.5884,-4.5883,-4.5882,0,-4.5614,-4.5694,-4.5785,-4.5822,-4.5862,-4.5968,-4.5921,-4.5969,-4.5921,-4.59,-4.6022,-4.6024,-4.608,-4.6113,-4.6067,-4.6259,-4.622,-4.6142,-4.6017,-4.6231,-4.6312,-4.6345,-4.5901,-4.5897,-4.5894,-4.5891,0,0,-4.5971,-4.5972,-4.6007,-4.6022,-4.6034,-4.6095,-4.6196,-4.6249,-4.6292,-4.6321,-4.6404,-4.65,-4.6427,-4.6454,-4.6409,-4.6488,-4.6692,-4.6399,-4.6398,-4.6454,-4.6905,-4.6965,-4.7004,-4.6644,-4.6651,-4.6655,-4.6904,0,-4.6216,-4.6388,-4.6334,-4.6508,-4.6581,-4.6481,-4.6569,-4.6586,-4.657,-4.663,-4.6611,-4.6681,-4.6579,-4.6594,-4.6668,-4.6652,-4.6782,-4.6633,-4.6722,-4.6726,-4.6721,-4.7046,-4.7109,-4.7344,-4.6935,-4.694,-4.6944,0,-4.6525,-4.6566,-4.6747,-4.6747,-4.6775,-4.6856,-4.69,-4.6959,-4.6977,-4.6959,-4.699,-4.6929,-4.7028,-4.6904,-4.7041,-4.6941,-4.6974,-4.6972,-4.698,-4.6986,-4.6848,-4.7062,-4.7417,-4.7452,-4.6993,-4.6989,-4.6985,0,-4.6768,-4.6868,-4.6989,-4.7006,-4.7008,-4.7067,-4.7071,-4.7082,-4.7118,-4.7158,-4.718,-4.7232,-4.726,-4.7301,-4.7256,-4.7169,-4.74,-4.7272,-4.7389,-4.7391,-4.7442,-4.744,-4.7808,-4.7464,-4.7463,-4.7463,-4.7462,0,-4.7048,-4.7163,-4.7099,-4.7174,-4.73,-4.7237,-4.7363,-4.7356,-4.7367,-4.7439,-4.7355,-4.7425,-4.736,-4.7424,-4.7389,-4.7508,-4.7522,-4.7511,-4.75,-4.7519,-4.752,-4.754,-4.7522,-4.7472,-4.747,-4.7468,-4.7466,0,-4.7341,-4.7302,-4.7428,-4.742,-4.7421,-4.7515,-4.7508,-4.7577,-4.7554,-4.7647,-4.7665,-4.763,-4.7701,-4.766,-4.7733,-4.7709,-4.7864,-4.7831,-4.7858,-4.785,-4.7969,-4.7959,-4.8363,-4.8413,-4.8037,-4.8041,-4.8044,0,-4.7522,-4.7608,-4.761,-4.7651,-4.7661,-4.773,-4.7766,-4.7707,-4.7748,-4.7775,-4.7842,-4.7906,-4.7953,-4.8072,-4.8054,-4.8109,-4.8077,-4.8215,-4.8085,-4.8101,-4.808,-4.8075,-4.8084,-4.8241,-4.8246,-4.8249,-4.8252,0,-4.7848,-4.7824,-4.7879,-4.7929,-4.7974,-4.801,-4.8039,-4.8078,-4.802,-4.8071,-4.8142,-4.8179,-4.8253,-4.8318,-4.8365,-4.837,-4.8303,-4.8293,-4.8323,-4.8343,-4.8356,-4.8351,-4.793,-4.8284,-4.8281,-4.8279,-4.8277,-4.8276,-4.809,-4.8162,-4.8175,-4.8239,-4.8254,-4.8284,-4.8348,-4.8334,-4.8392,-4.8447,-4.8409,-4.8494,-4.851,-4.8567,-4.858,-4.8646,-4.859,-4.8634,-4.8645,-4.8657,-4.8674,-4.8345,-4.8654,-4.8653,-4.8652,-4.8652,-4.8651,0,-4.8412,-4.8415,-4.8475,-4.8518,-4.8569,-4.85,-4.8528,-4.8576,-4.8651,-4.8671,-4.872,-4.8803,-4.8865,-4.8852,-4.8908,-4.8964,-4.8935,-4.8981,-4.8976,-4.8979,-4.872,-4.8688,-4.9004,-4.9004,-4.9004,-4.9004,-4.9004,-4.9003,-4.8585,-4.8704,-4.8682,-4.8808,-4.8809,-4.8891,-4.8914,-4.894,-4.8956,-4.9052,-4.9103,-4.9094,-4.9101,-4.9157,-4.9212,-4.9207,-4.9232,-4.929,-4.9274,-4.9032,-4.8997,-4.8964,-4.8934,-4.9296,-4.9296,-4.9527,-4.9529,-4.9531]},{"header":{"parameterUnit":"m.s-1","parameterCategory":1,"la1":30.2991,"la2":30.254,"lo1":-89.0895,"lo2":-89.0444,"dy":0.0017,"dx":0.0017,"nx":28,"ny":28,"refTime":"2023-10-01T03:00:00:Z","depth":0,"parameterNumber":3,"parameterNumberName":"V-component_of_WINDS"},"data":[0,0,0,0,0,0,0,0,0,0,0,0,0,0,0,0,0,0,0,0,0,0,0,0,0,0,0,0,0,0,0,0,0,0,0,0,0,0,0,0,0,0,0,0,0,0,0,0,0,0,0,0,0,0,0,0,0,0,1.446,1.446,0,1.4414,1.4413,1.4413,1.4406,1.4406,1.4407,1.4407,1.4354,1.4352,1.4351,0,0,0,0,0,0,0,0,0,0,0,0,0,1.454,1.4538,1.4461,1.446,1.4459,1.4414,1.4413,1.4413,1.4406,1.4406,1.4407,1.4407,1.4355,1.4353,1.435,0,0,0,0,0,0,0,0,0,0,0,0,0,1.45,1.4538,1.4461,1.4451,1.4449,1.4414,1.4413,1.4412,1.4406,1.4406,1.4407,1.4407,1.4355,1.4353,1.435,1.432,0,0,1.4342,1.4341,0,0,0,0,0,0,0,0,1.4503,1.4497,1.4453,1.4451,1.445,1.4416,1.4422,1.4381,1.4405,1.4422,1.4407,1.4408,1.4374,1.437,1.4359,1.4318,1.4316,1.4342,1.434,1.4339,1.4338,0,0,0,0,0,0,0,1.4505,1.4499,1.4442,1.4452,1.445,1.4447,1.4442,1.4414,1.4395,1.4421,1.442,1.4415,1.4373,1.4362,1.4358,1.4315,1.4342,1.4339,1.4338,1.4336,1.4247,1.4246,0,0,0,0,0,0,1.451,1.4502,1.4443,1.444,1.4478,1.4445,1.444,1.4426,1.4395,1.4391,1.4414,1.4415,1.4366,1.4361,1.4356,1.4319,1.4339,1.4336,1.4335,1.4248,1.4247,1.4246,0,0,0,0,0,0,1.4512,1.4505,1.4445,1.4471,1.4463,1.4443,1.4428,1.4425,1.4414,1.439,1.4386,1.4407,1.4367,1.436,1.433,1.4317,1.4335,1.4333,1.4248,1.4247,1.4246,1.4245,0,0,0,0,0,0,1.4515,1.4506,1.4495,1.4471,1.4462,1.442,1.4427,1.4424,1.441,1.441,1.4382,1.4378,1.4367,1.4334,1.4327,1.4314,1.433,1.4249,1.4248,1.4247,1.4246,1.4244,1.4242,0,0,0,0,0,1.4517,1.4495,1.4495,1.4488,1.4448,1.442,1.4414,1.4403,1.4409,1.4397,1.4382,1.4379,1.432,1.4331,1.4323,1.4309,1.425,1.4248,1.4247,1.4247,1.4244,1.4242,0,0,0,0,0,0,1.4516,1.4492,1.4491,1.446,1.4443,1.4419,1.4403,1.4401,1.4379,1.438,1.4366,1.436,1.433,1.4316,1.4329,1.4279,1.4285,1.4282,1.4288,1.4285,1.4284,1.4286,1.4328,0,0,0,0,0,1.4513,1.4494,1.4473,1.4448,1.4439,1.4423,1.441,1.4404,1.4384,1.4376,1.4358,1.4338,1.4315,1.43,1.4277,1.4245,1.4238,1.4231,1.4229,1.4228,1.4224,1.4206,1.4203,1.424,1.424,1.424,0,0,1.4505,1.4489,1.4477,1.4447,1.4433,1.4412,1.4417,1.4394,1.4378,1.4371,1.4342,1.4329,1.4305,1.4274,1.4259,1.4262,1.4213,1.4226,1.4225,1.4222,1.4204,1.42,1.4197,1.4239,1.4239,1.424,0,0,1.4479,1.4466,1.4444,1.443,1.4409,1.4398,1.4393,1.437,1.4362,1.4333,1.4328,1.4309,1.4269,1.4253,1.4239,1.421,1.4206,1.4203,1.4192,1.4174,1.4171,1.4169,1.4157,1.4154,1.42,1.42,1.42,0,1.4471,1.444,1.4432,1.441,1.4397,1.4394,1.4371,1.4357,1.4328,1.4319,1.4323,1.4275,1.4258,1.4223,1.4216,1.4206,1.4198,1.4205,1.4173,1.417,1.4167,1.4156,1.4152,1.42,1.42,1.42,1.42,0,1.4431,1.441,1.4395,1.437,1.4355,1.4333,1.4321,1.4307,1.4302,1.4291,1.4262,1.4243,1.4217,1.4208,1.4202,1.4172,1.4174,1.4176,1.4182,1.4164,1.4153,1.4149,1.42,1.42,1.42,1.42,0,0,1.44,1.4374,1.4368,1.4357,1.4334,1.4317,1.4295,1.4272,1.4259,1.4241,1.4221,1.4189,1.4191,1.4176,1.4168,1.4153,1.4131,1.4157,1.4156,1.4151,1.4096,1.4093,1.4089,1.4129,1.4129,1.4128,1.4097,0,1.4371,1.4332,1.4326,1.4291,1.4272,1.4269,1.425,1.4233,1.4223,1.4204,1.4193,1.417,1.4175,1.4166,1.4151,1.4137,1.4119,1.4139,1.4109,1.4108,1.4113,1.4083,1.408,1.4052,1.4093,1.4092,1.4092,0,1.433,1.4313,1.4278,1.4259,1.425,1.4233,1.4212,1.4194,1.4175,1.4169,1.4154,1.4149,1.4125,1.4134,1.41,1.4114,1.4102,1.4093,1.4092,1.4087,1.4097,1.4075,1.4043,1.4038,1.4085,1.4086,1.4086,0,1.431,1.4278,1.4253,1.4243,1.4221,1.4209,1.4199,1.4182,1.4168,1.4149,1.414,1.4118,1.4106,1.4088,1.4077,1.4086,1.4044,1.4053,1.4037,1.4037,1.4026,1.4026,1.3989,1.4021,1.4021,1.4021,1.4022,0,1.4277,1.4254,1.4243,1.4227,1.4203,1.4195,1.4171,1.4161,1.4146,1.4127,1.4124,1.4106,1.4094,1.4074,1.4065,1.4038,1.4033,1.4026,1.4023,1.4025,1.4026,1.4015,1.4016,1.402,1.4021,1.4021,1.4021,0,1.4248,1.424,1.4212,1.4195,1.419,1.4172,1.4157,1.4141,1.4133,1.4109,1.4103,1.4089,1.4066,1.4054,1.4025,1.4019,1.3988,1.3987,1.3994,1.3993,1.3977,1.3978,1.393,1.3922,1.3962,1.3961,1.3961,0,1.4226,1.4209,1.4191,1.418,1.417,1.4151,1.4138,1.4131,1.4118,1.4097,1.4083,1.4061,1.4042,1.4005,1.3991,1.3969,1.3967,1.3952,1.3963,1.3965,1.3965,1.3965,1.3963,1.3948,1.3948,1.3948,1.3947,0,1.4188,1.4185,1.4168,1.4149,1.4135,1.4119,1.4104,1.4094,1.4085,1.407,1.4047,1.4033,1.4005,1.3982,1.396,1.3948,1.3945,1.3945,1.3939,1.3939,1.3944,1.394,1.3987,1.3945,1.3945,1.3945,1.3945,1.3946,1.416,1.4146,1.4131,1.4112,1.4101,1.4087,1.4072,1.4062,1.4044,1.4022,1.4019,1.3995,1.3977,1.3947,1.3935,1.3916,1.3919,1.3911,1.3909,1.3907,1.3905,1.3949,1.3912,1.3912,1.3912,1.3912,1.3912,0,1.412,1.4112,1.4095,1.4075,1.406,1.4062,1.4046,1.4033,1.4012,1.3998,1.398,1.3955,1.3933,1.3919,1.3897,1.3884,1.3883,1.3878,1.3878,1.3875,1.3905,1.3911,1.388,1.388,1.388,1.388,1.388,1.388,1.4097,1.4073,1.4069,1.4039,1.403,1.4008,1.3998,1.3985,1.3974,1.3946,1.3929,1.3921,1.3906,1.3884,1.3864,1.386,1.3851,1.3847,1.3843,1.387,1.3873,1.3876,1.3882,1.3846,1.3846,1.3815,1.3815,1.3815]}]]